Weather History for Frederick, OK

Change the Weather History Date:

Monday, June 23, 2014

  Actual Average (KLTS) Record (KLTS)
Temperature  
Mean Temperature 76 °F -  
Max Temperature 88 °F 89 °F 106 °F (2011)
Min Temperature 64 °F 68 °F 60 °F (2004)
Cooling Degree Days 10    
Growing Degree Days 26 (Base 50)    
Moisture  
Dew Point 66 °F    
Average Humidity 81    
Maximum Humidity 100    
Minimum Humidity 46    
Precipitation  
Precipitation 0.79 in - - ()
Sea Level Pressure  
Sea Level Pressure 29.88 in    
Wind  
Wind Speed 15 mph (NNE)    
Max Wind Speed 44 mph    
Max Gust Speed 53 mph    
Visibility 8 miles    
Events Rain , Thunderstorm    
Averages and records for this station are not official NWS values.
T = Trace of Precipitation, MM = Missing Value Source: NWS Daily Summary

Daily Weather History Graph

Daily Weather History Graph

Search for Another Location

Airport:

Trip Planner

Search our weather history database for the weather conditions in past years. The results will help you decide how hot, cold, wet, or windy it might be!

Date:

Astronomy

Jun. 23, 2014 Rise Set
Actual Time 6:24 AM CDT 8:51 PM CDT
Civil Twilight 5:55 AM CDT 9:21 PM CDT
Nautical Twilight 5:18 AM CDT 9:57 PM CDT
Astronomical Twilight 4:39 AM CDT 10:37 PM CDT
Moon 3:44 AM CDT (6/23) 5:40 PM CDT (6/23)
Length of Visible Light 15h 25m
Length of Day
14h 27m
Waning Crescent, 13% of the Moon is Illuminated
Jun 23
Waning Crescent
Jun 27
New
Jul 5
First Quarter
Jul 12
Full
Jul 18
Last Quarter

Hourly Weather History & Observations

Time (CDT) Temp. Heat Index Dew Point Humidity Pressure Visibility Wind Dir Wind Speed Gust Speed Precip Events Conditions
12:53 AM 78.1 °F - 69.1 °F 74% 29.74 in 10.0 mi ESE 11.5 mph - N/A   Mostly Cloudy
1:53 AM 77.0 °F - 69.1 °F 76% 29.76 in 10.0 mi East 6.9 mph - N/A   Overcast
2:53 AM 75.9 °F - 69.1 °F 79% 29.79 in 10.0 mi ENE 5.8 mph - N/A   Partly Cloudy
3:07 AM 75.2 °F - 66.2 °F 73% 29.91 in 8.0 mi North 43.7 mph 52.9 mph N/A Thunderstorm Squalls
3:17 AM 66.2 °F - 64.4 °F 94% 29.94 in 1.5 mi North 32.2 mph 52.9 mph 0.10 in Rain , Thunderstorm Heavy Thunderstorms and Rain
3:28 AM 64.4 °F - 64.4 °F 100% 29.97 in 1.5 mi NNE 27.6 mph 40.3 mph 0.23 in Rain , Thunderstorm Heavy Thunderstorms and Rain
3:31 AM 64.4 °F - 64.4 °F 100% 29.96 in 2.0 mi NNE 26.5 mph 40.3 mph 0.24 in Rain , Thunderstorm Heavy Thunderstorms and Rain
3:39 AM 64.4 °F - 64.4 °F 100% 29.92 in 4.0 mi NNE 24.2 mph 34.5 mph 0.27 in Rain , Thunderstorm Thunderstorms and Rain
3:53 AM 64.9 °F - 64.0 °F 97% 29.87 in 5.0 mi NNE 23.0 mph 33.4 mph 0.30 in Rain , Thunderstorm Rain
4:06 AM 66.2 °F - 64.4 °F 94% 29.92 in 7.0 mi North 21.9 mph - 0.01 in Rain , Thunderstorm Light Rain
4:42 AM 66.2 °F - 64.4 °F 94% 29.94 in 3.0 mi NNE 18.4 mph 32.2 mph 0.12 in Rain Heavy Rain
4:53 AM 66.0 °F - 64.9 °F 96% 29.91 in 5.0 mi North 18.4 mph - 0.15 in Rain Rain
5:28 AM 66.2 °F - 64.4 °F 94% 29.93 in 5.0 mi NE 11.5 mph - 0.13 in Rain , Thunderstorm Rain
5:53 AM 66.0 °F - 64.9 °F 96% 29.86 in 5.0 mi ENE 10.4 mph - 0.23 in Rain Heavy Rain
6:53 AM 66.0 °F - 64.9 °F 96% 29.74 in 10.0 mi SE 21.9 mph 27.6 mph 0.11 in Rain Light Rain
7:41 AM 66.2 °F - 64.4 °F 94% 29.78 in 10.0 mi SSE 8.1 mph - 0.00 in   Clear
7:53 AM 66.9 °F - 64.9 °F 93% 29.82 in 10.0 mi NNW 26.5 mph 31.1 mph 0.00 in   Partly Cloudy
8:10 AM 66.2 °F - 66.2 °F 100% 29.87 in 10.0 mi North 13.8 mph - N/A   Scattered Clouds
8:53 AM 70.0 °F - 64.9 °F 84% 29.83 in 10.0 mi West 15.0 mph - N/A   Clear
9:53 AM 72.0 °F - 64.9 °F 78% 29.86 in 10.0 mi NW 17.3 mph - N/A   Mostly Cloudy
10:53 AM 73.9 °F - 66.0 °F 76% 29.89 in 10.0 mi North 12.7 mph - N/A   Overcast
11:48 AM 75.2 °F - 66.2 °F 73% 29.95 in 10.0 mi NNE 10.4 mph - N/A   Overcast
11:53 AM 75.9 °F - 66.0 °F 71% 29.91 in 10.0 mi North 13.8 mph - N/A   Overcast
12:53 PM 78.1 °F - 66.0 °F 66% 29.91 in 10.0 mi North 12.7 mph - N/A   Overcast
1:53 PM 81.0 °F 83.0 °F 66.0 °F 60% 29.90 in 10.0 mi NNE 9.2 mph - N/A   Partly Cloudy
2:53 PM 82.9 °F 85.4 °F 66.9 °F 58% 29.90 in 10.0 mi Variable 5.8 mph - N/A   Clear
5:53 PM 86.0 °F 87.6 °F 64.9 °F 49% 29.86 in 10.0 mi Calm Calm - N/A   Partly Cloudy
6:53 PM 87.1 °F 88.3 °F 64.0 °F 46% 29.86 in 10.0 mi Calm Calm - N/A   Clear
7:53 PM 84.0 °F 85.8 °F 64.9 °F 53% 29.86 in 10.0 mi Calm Calm - N/A   Partly Cloudy
8:53 PM 80.1 °F 82.9 °F 69.1 °F 69% 29.88 in 10.0 mi Calm Calm - N/A   Clear
9:53 PM 78.1 °F - 68.0 °F 71% 29.90 in 10.0 mi Calm Calm - N/A   Clear
10:53 PM 75.9 °F - 68.0 °F 76% 29.94 in 10.0 mi East 6.9 mph - N/A   Clear
11:53 PM 73.0 °F - 69.1 °F 87% 29.95 in 10.0 mi East 6.9 mph - N/A   Clear